| time (UTC) | temp C | wind direction | speed KPH | gust KPH | rain 1hr cm | rain 24hr cm | rain mn cm | humidity % | barometer mb |
| 20260503192515 | 17 | 180 | 6.4 | 14.5 | 0.00 | 0.00 | 0.00 | 61 | 1013.3 |
| 20260503191515 | 17 | 45 | 3.2 | 4.8 | 0.00 | 0.00 | 0.00 | 62 | 1013.4 |
| 20260503190515 | 17 | 158 | 6.4 | 9.7 | 0.00 | 0.00 | 0.00 | 62 | 1013.4 |
| 20260503185516 | 17 | 90 | 3.2 | 4.8 | 0.00 | 0.00 | 0.00 | 61 | 1013.4 |
| 20260503184515 | 16 | 315 | 4.8 | 6.4 | 0.00 | 0.00 | 0.00 | 64 | 1013.4 |
| 20260503183516 | 16 | 135 | 4.8 | 6.4 | 0.00 | 0.00 | 0.00 | 65 | 1013.5 |
| 20260503182515 | 16 | 225 | 6.4 | 9.7 | 0.00 | 0.00 | 0.00 | 66 | 1013.6 |
| 20260503181515 | 16 | 158 | 1.6 | 3.2 | 0.00 | 0.00 | 0.00 | 70 | 1013.6 |
| 20260503180515 | 15 | 293 | 3.2 | 8.0 | 0.00 | 0.00 | 0.00 | 71 | 1013.6 |
| 20260503175555 | 15 | 225 | 3.2 | 6.4 | 0.00 | 0.00 | 0.00 | 72 | 1013.6 |
| 20260503174515 | 15 | 225 | 3.2 | 4.8 | 0.00 | 0.00 | 0.00 | 74 | 1013.7 |
| 20260503173555 | 14 | 248 | 4.8 | 6.4 | 0.00 | 0.00 | 0.00 | 75 | 1013.7 |
| 20260503172515 | 14 | 270 | 6.4 | 8.0 | 0.00 | 0.00 | 0.00 | 75 | 1013.6 |
| 20260503171515 | 15 | 270 | 12.9 | 19.3 | 0.00 | 0.00 | 0.00 | 74 | 1013.6 |
| 20260503170515 | 15 | 338 | 1.6 | 6.4 | 0.00 | 0.00 | 0.00 | 74 | 1013.4 |
| 20260503150517 | 13 | 90 | 4.8 | 8.0 | 0.00 | 0.00 | 0.00 | 78 | 1013.0 |
| 20260503130517 | 13 | 293 | 4.8 | 8.0 | 0.00 | 0.00 | 0.00 | 78 | 1011.8 |
| 20260503110517 | 13 | 270 | 3.2 | 6.4 | 0.00 | 0.00 | 0.00 | 79 | 1011.8 |
| 20260503090116 | 13 | 270 | 4.8 | 6.4 | 0.00 | 0.00 | 0.00 | 80 | 1011.8 |
| 20260503081117 | 13 | 315 | 4.8 | 6.4 | 0.00 | 0.00 | 0.00 | 79 | 1012.3 |
| 20260503080156 | 13 | 338 | 3.2 | 3.2 | 0.00 | 0.00 | 0.00 | 79 | 1012.4 |
| 20260503072116 | 13 | 0 | 4.8 | 8.0 | 0.00 | 0.00 | 0.00 | 80 | 1012.5 |
| 20260503071117 | 13 | 0 | 4.8 | 6.4 | 0.00 | 0.00 | 0.00 | 80 | 1012.5 |
| 20260503070116 | 13 | 23 | 4.8 | 8.0 | 0.00 | 0.00 | 0.00 | 79 | 1012.5 |
| 20260503060116 | 13 | 45 | 4.8 | 6.4 | 0.00 | 0.00 | 0.00 | 78 | 1012.6 |
| 20260503055119 | 13 | 0 | 6.4 | 8.0 | 0.00 | 0.00 | 0.00 | 78 | 1012.7 |
| 20260503054116 | 13 | 338 | 6.4 | 9.7 | 0.00 | 0.00 | 0.00 | 78 | 1012.8 |
| 20260503053156 | 13 | 23 | 3.2 | 3.2 | 0.00 | 0.00 | 0.00 | 78 | 1012.8 |
| 20260503052116 | 13 | 0 | 6.4 | 8.0 | 0.00 | 0.00 | 0.00 | 78 | 1012.9 |
| 20260503051158 | 13 | 0 | 8.0 | 12.9 | 0.00 | 0.00 | 0.00 | 78 | 1012.9 |
| 20260503050116 | 13 | 0 | 6.4 | 11.3 | 0.00 | 0.00 | 0.00 | 78 | 1012.8 |
| 20260503045116 | 13 | 23 | 6.4 | 8.0 | 0.00 | 0.00 | 0.00 | 78 | 1012.7 |
| 20260503044116 | 13 | 23 | 6.4 | 8.0 | 0.00 | 0.00 | 0.00 | 78 | 1012.6 |
| 20260503043116 | 13 | 0 | 4.8 | 6.4 | 0.00 | 0.00 | 0.00 | 78 | 1012.5 |
| 20260503042116 | 13 | 45 | 4.8 | 9.7 | 0.00 | 0.00 | 0.00 | 78 | 1012.5 |
| 20260503041116 | 13 | 45 | 6.4 | 11.3 | 0.00 | 0.00 | 0.00 | 78 | 1012.4 |
| 20260503040116 | 13 | 338 | 8.0 | 11.3 | 0.00 | 0.00 | 0.00 | 78 | 1012.3 |
| 20260503035116 | 13 | 338 | 9.7 | 11.3 | 0.00 | 0.00 | 0.00 | 78 | 1012.2 |
| 20260503034157 | 13 | 338 | 8.0 | 14.5 | 0.00 | 0.00 | 0.00 | 77 | 1012.1 |
| 20260503033116 | 13 | 23 | 9.7 | 12.9 | 0.00 | 0.00 | 0.00 | 76 | 1012.0 |
| 20260503032116 | 13 | 23 | 8.0 | 14.5 | 0.00 | 0.00 | 0.00 | 76 | 1011.9 |
| 20260503031116 | 14 | 0 | 8.0 | 12.9 | 0.00 | 0.00 | 0.00 | 75 | 1011.9 |
| 20260503030116 | 14 | 0 | 9.7 | 14.5 | 0.00 | 0.00 | 0.00 | 75 | 1011.7 |
| 20260503025116 | 14 | 338 | 11.3 | 17.7 | 0.00 | 0.00 | 0.00 | 76 | 1011.5 |
| 20260503024116 | 14 | 0 | 9.7 | 16.1 | 0.00 | 0.00 | 0.00 | 76 | 1011.5 |
| 20260503023116 | 15 | 23 | 8.0 | 11.3 | 0.00 | 0.00 | 0.00 | 75 | 1011.4 |
| 20260503022116 | 15 | 23 | 12.9 | 19.3 | 0.00 | 0.00 | 0.00 | 74 | 1011.3 |
| 20260503021117 | 15 | 338 | 12.9 | 16.1 | 0.00 | 0.00 | 0.00 | 75 | 1011.4 |
| 20260503020116 | 15 | 0 | 12.9 | 20.9 | 0.00 | 0.00 | 0.00 | 75 | 1011.3 |
| 20260503015116 | 15 | 45 | 14.5 | 19.3 | 0.00 | 0.00 | 0.00 | 74 | 1011.2 |
| 20260503014116 | 16 | 23 | 12.9 | 17.7 | 0.00 | 0.00 | 0.00 | 74 | 1011.3 |
| 20260503013118 | 16 | 338 | 12.9 | 16.1 | 0.00 | 0.00 | 0.00 | 73 | 1011.3 |
| 20260503012117 | 16 | 0 | 8.0 | 11.3 | 0.00 | 0.00 | 0.00 | 75 | 1011.3 |
| 20260503011156 | 16 | 45 | 14.5 | 19.3 | 0.00 | 0.00 | 0.00 | 74 | 1011.3 |
| 20260503010117 | 17 | 45 | 8.0 | 9.7 | 0.00 | 0.00 | 0.00 | 74 | 1011.4 |
| 20260503005116 | 17 | 45 | 9.7 | 16.1 | 0.00 | 0.00 | 0.00 | 73 | 1011.3 |
| 20260503004116 | 17 | 0 | 11.3 | 14.5 | 0.00 | 0.00 | 0.00 | 73 | 1011.3 |
| 20260503003115 | 16 | 45 | 17.7 | 24.1 | 0.00 | 0.00 | 0.00 | 73 | 1011.4 |
| 20260503002116 | 17 | 45 | 14.5 | 20.9 | 0.00 | 0.00 | 0.00 | 72 | 1011.4 |
| 20260503001116 | 17 | 0 | 12.9 | 24.1 | 0.00 | 0.00 | 0.00 | 72 | 1011.4 |
| 20260503000115 | 17 | 0 | 9.7 | 20.9 | 0.00 | 0.00 | 0.00 | 70 | 1011.4 |
| 20260502235115 | 18 | 315 | 12.9 | 17.7 | 0.00 | 0.00 | 0.00 | 69 | 1011.4 |
| 20260502234119 | 18 | 23 | 17.7 | 24.1 | 0.00 | 0.00 | 0.00 | 70 | 1011.4 |
| 20260502233116 | 18 | 0 | 11.3 | 19.3 | 0.00 | 0.00 | 0.00 | 69 | 1011.5 |
| 20260502232115 | 18 | 0 | 14.5 | 19.3 | 0.00 | 0.00 | 0.00 | 70 | 1011.6 |
| 20260502231115 | 18 | 23 | 14.5 | 20.9 | 0.00 | 0.00 | 0.00 | 69 | 1011.7 |
| 20260502230115 | 18 | 23 | 11.3 | 16.1 | 0.00 | 0.00 | 0.00 | 69 | 1011.8 |
| 20260502225115 | 18 | 0 | 12.9 | 20.9 | 0.00 | 0.00 | 0.00 | 69 | 1011.9 |
| 20260502224115 | 18 | 315 | 9.7 | 16.1 | 0.00 | 0.00 | 0.00 | 69 | 1012.1 |
| 20260502223117 | 18 | 45 | 12.9 | 17.7 | 0.00 | 0.00 | 0.00 | 69 | 1012.2 |
| 20260502222116 | 18 | 338 | 6.4 | 12.9 | 0.00 | 0.00 | 0.00 | 69 | 1012.4 |
| 20260502221116 | 18 | 315 | 11.3 | 14.5 | 0.00 | 0.00 | 0.00 | 67 | 1012.6 |
| 20260502220116 | 18 | 23 | 11.3 | 19.3 | 0.00 | 0.00 | 0.00 | 69 | 1012.7 |
| 20260502215115 | 18 | 0 | 11.3 | 14.5 | 0.00 | 0.00 | 0.00 | 69 | 1012.8 |
| 20260502214313 | 18 | 0.0 | 0.0 | 0.00 | 0.00 | 0.00 | 69 | 1012.8 | |
| 20260502213515 | 18 | 338 | 11.3 | 16.1 | 0.00 | 0.00 | 0.00 | 69 | 1012.9 |
| 20260502212515 | 19 | 23 | 4.8 | 9.7 | 0.00 | 0.00 | 0.00 | 70 | 1012.8 |
| 20260502211515 | 18 | 338 | 11.3 | 20.9 | 0.00 | 0.00 | 0.00 | 70 | 1013.0 |
| 20260502210516 | 18 | 0 | 9.7 | 16.1 | 0.00 | 0.00 | 0.00 | 70 | 1013.1 |
| 20260502205516 | 18 | 338 | 6.4 | 11.3 | 0.00 | 0.00 | 0.00 | 70 | 1013.2 |
| 20260502204556 | 18 | 45 | 9.7 | 12.9 | 0.00 | 0.00 | 0.00 | 70 | 1013.3 |
| 20260502203515 | 18 | 338 | 6.4 | 12.9 | 0.00 | 0.00 | 0.00 | 69 | 1013.4 |
| 20260502202555 | 18 | 45 | 8.0 | 14.5 | 0.00 | 0.00 | 0.00 | 69 | 1013.5 |
| 20260502201515 | 18 | 68 | 8.0 | 11.3 | 0.00 | 0.00 | 0.00 | 71 | 1013.7 |
| 20260502200515 | 18 | 23 | 9.7 | 14.5 | 0.00 | 0.00 | 0.00 | 70 | 1013.8 |
| 20260502195516 | 18 | 45 | 6.4 | 11.3 | 0.00 | 0.00 | 0.00 | 70 | 1013.9 |
| 20260502194515 | 18 | 45 | 8.0 | 9.7 | 0.00 | 0.00 | 0.00 | 71 | 1014.0 |
| 20260502193515 | 18 | 90 | 4.8 | 8.0 | 0.00 | 0.00 | 0.00 | 72 | 1014.0 |